Weather History for K0E0 - May, 2013

Change the Weather History Date:

Monday, May 20, 2013

  Actual Average (KABQ) Record (KABQ)
Temperature  
Mean Temperature 56 °F 67 °F  
Max Temperature 73 °F 80 °F 94 °F (2008)
Min Temperature 39 °F 54 °F 32 °F (1917)
Degree Days  
Heating Degree Days 9 2  
Month to date heating degree days 61  
Since 1 July heating degree days 4165  
Cooling Degree Days 0 3  
Month to date cooling degree days 39  
Year to date cooling degree days 46  
Growing Degree Days 6 (Base 50)    
Moisture  
Dew Point 24 °F    
Average Humidity 31    
Maximum Humidity 63    
Minimum Humidity 8    
Precipitation  
Precipitation 0.00 in 0.01 in 0.85 in (1979)
Month to date precipitation 0.32  
Year to date precipitation 2.36  
Snow  
Snow 0.00 in - - ()
Month to date snowfall  
Since 1 July snowfall  
Snow Depth -    
Sea Level Pressure  
Sea Level Pressure 30.01 in    
Wind  
Wind Speed 14 mph (WNW)    
Max Wind Speed 24 mph    
Max Gust Speed 33 mph    
Visibility 10 miles    
Events      
T = Trace of Precipitation, MM = Missing Value Source: NWS Daily Summary

Daily Weather History Graph

Daily Weather History Graph

Search for Another Location

Airport or City:

Trip Planner

Search our weather history database for the weather conditions in past years. The results will help you decide how hot, cold, wet, or windy it might be!

Date:

Astronomy

May. 20, 2013 Rise Set
Actual Time 5:56 AM MDT 8:04 PM MDT
Civil Twilight 5:28 AM MDT 8:33 PM MDT
Nautical Twilight 4:53 AM MDT 9:08 PM MDT
Astronomical Twilight 4:16 AM MDT 9:45 PM MDT
Moon 3:25 PM MDT (5/20) 2:41 AM MDT (5/20)
Length of Visible Light 15h 04m
Length of Day
14h 07m
Waxing Gibbous, 75% of the Moon is Illuminated
May 20
Waxing Gibbous
May 24
Full
May 31
Last Quarter
Jun 8
New
Jun 16
First Quarter

Hourly Weather History & Observations

Time (MDT) Temp. Windchill Dew Point Humidity Pressure Visibility Wind Dir Wind Speed Gust Speed Precip Events Conditions
12:15 AM 57.0 °F - 27.5 °F 32% 30.00 in 10.0 mi NW 16.1 mph - N/A   Mostly Cloudy
12:35 AM 55.6 °F - 27.5 °F 34% 30.01 in 10.0 mi NW 15.0 mph - N/A   Mostly Cloudy
12:55 AM 55.4 °F - 27.9 °F 35% 30.01 in 10.0 mi NNW 12.7 mph - N/A   Mostly Cloudy
1:15 AM 54.1 °F - 32.0 °F 43% 30.02 in 10.0 mi NNW 19.6 mph 25.3 mph N/A   Clear
1:35 AM 51.8 °F - 32.4 °F 48% 30.02 in 10.0 mi NNW 13.8 mph - N/A   Clear
1:55 AM 50.9 °F - 32.0 °F 48% 30.02 in 10.0 mi North 13.8 mph - N/A   Clear
2:15 AM 50.4 °F - 32.0 °F 49% 30.01 in 10.0 mi North 10.4 mph - N/A   Clear
2:35 AM 49.3 °F - 31.8 °F 51% 30.01 in 10.0 mi NNW 9.2 mph - N/A   Scattered Clouds
2:55 AM 49.5 °F - 32.0 °F 51% 30.01 in 10.0 mi North 6.9 mph - N/A   Scattered Clouds
3:15 AM 46.8 °F - 31.6 °F 56% 30.00 in 10.0 mi NW 6.9 mph - N/A   Clear
3:35 AM 45.1 °F - 30.0 °F 55% 30.00 in 10.0 mi Calm Calm - N/A   Clear
3:55 AM 45.5 °F 42.5 °F 30.2 °F 55% 30.00 in 10.0 mi West 5.8 mph - N/A   Clear
4:15 AM 43.3 °F 38.1 °F 28.9 °F 57% 30.01 in 10.0 mi South 9.2 mph - N/A   Clear
4:35 AM 39.4 °F 34.5 °F 27.5 °F 62% 30.01 in 10.0 mi SSW 6.9 mph - N/A   Clear
4:55 AM 41.2 °F 37.3 °F 29.3 °F 63% 30.01 in 10.0 mi WNW 5.8 mph - N/A   Scattered Clouds
5:15 AM 45.5 °F - 29.7 °F 54% 30.01 in 10.0 mi Calm Calm - N/A   Mostly Cloudy
5:35 AM 46.6 °F - 29.8 °F 52% 30.02 in 10.0 mi WSW 12.7 mph - N/A   Overcast
5:55 AM 45.9 °F 40.8 °F 29.3 °F 52% 30.02 in 10.0 mi WSW 10.4 mph - N/A   Scattered Clouds
6:15 AM 46.4 °F 40.4 °F 30.0 °F 53% 30.02 in 10.0 mi WSW 13.8 mph - N/A   Clear
6:35 AM 48.7 °F - 30.9 °F 50% 30.03 in 10.0 mi WSW 16.1 mph - N/A   Clear
6:55 AM 50.4 °F - 30.9 °F 47% 30.04 in 10.0 mi West 11.5 mph 18.4 mph N/A   Clear
7:15 AM 52.7 °F - 31.3 °F 44% 30.04 in 10.0 mi West 12.7 mph - N/A   Clear
7:35 AM 54.9 °F - 32.0 °F 42% 30.04 in 10.0 mi West 11.5 mph - N/A   Clear
7:55 AM 57.0 °F - 32.0 °F 39% 30.04 in 10.0 mi West 12.7 mph 17.3 mph N/A   Clear
8:15 AM 58.3 °F - 30.7 °F 35% 30.04 in 10.0 mi West 16.1 mph 21.9 mph N/A   Clear
8:35 AM 59.5 °F - 28.8 °F 31% 30.04 in 10.0 mi West 16.1 mph 23.0 mph N/A   Clear
8:55 AM 61.2 °F - 24.1 °F 24% 30.04 in 10.0 mi West 17.3 mph 20.7 mph N/A   Scattered Clouds
9:15 AM 61.5 °F - 24.4 °F 24% 30.04 in 10.0 mi West 18.4 mph - N/A   Scattered Clouds
9:35 AM 61.9 °F - 24.1 °F 24% 30.04 in 10.0 mi West 18.4 mph 25.3 mph N/A   Clear
9:55 AM 62.2 °F - 25.5 °F 25% 30.04 in 10.0 mi West 20.7 mph 27.6 mph N/A   Clear
10:15 AM 63.3 °F - 24.4 °F 23% 30.04 in 10.0 mi West 20.7 mph 26.5 mph N/A   Clear
10:35 AM 63.5 °F - 26.2 °F 24% 30.03 in 10.0 mi WNW 21.9 mph 26.5 mph N/A   Clear
10:55 AM 64.6 °F - 24.6 °F 22% 30.03 in 10.0 mi West 19.6 mph 26.5 mph N/A   Clear
11:15 AM 65.1 °F - 23.9 °F 21% 30.03 in 10.0 mi West 19.6 mph 27.6 mph N/A   Clear
11:35 AM 66.0 °F - 23.2 °F 20% 30.02 in 10.0 mi West 24.2 mph 31.1 mph N/A   Clear
11:55 AM 67.1 °F - 22.1 °F 18% 30.02 in 10.0 mi West 17.3 mph 27.6 mph N/A   Clear
12:35 PM 68.9 °F - 21.9 °F 17% 30.01 in 10.0 mi WSW 15.0 mph 24.2 mph N/A   Clear
12:55 PM 68.4 °F - 20.5 °F 16% 30.01 in 10.0 mi WNW 17.3 mph 24.2 mph N/A   Clear
1:15 PM 68.2 °F - 21.6 °F 17% 30.01 in 10.0 mi West 16.1 mph 21.9 mph N/A   Scattered Clouds
1:35 PM 69.3 °F - 20.7 °F 16% 30.00 in 10.0 mi WNW 9.2 mph 27.6 mph N/A   Scattered Clouds
1:55 PM 70.3 °F - 20.5 °F 15% 29.99 in 10.0 mi West 20.7 mph 29.9 mph N/A   Clear
2:15 PM 72.1 °F - 19.9 °F 14% 29.99 in 10.0 mi West 15.0 mph 24.2 mph N/A   Clear
2:35 PM 71.1 °F - 19.2 °F 14% 29.98 in 10.0 mi West 20.7 mph 29.9 mph N/A   Clear
2:55 PM 72.3 °F - 16.2 °F 12% 29.98 in 10.0 mi West 20.7 mph 28.8 mph N/A   Clear
3:15 PM 73.0 °F - 15.6 °F 11% 29.98 in 10.0 mi WSW 17.3 mph 23.0 mph N/A   Clear
3:35 PM 72.5 °F - 13.1 °F 10% 29.98 in 10.0 mi West 18.4 mph 23.0 mph N/A   Clear
3:55 PM 73.0 °F - 12.9 °F 10% 29.96 in 10.0 mi WNW 15.0 mph 23.0 mph N/A   Clear
4:15 PM 73.4 °F - 10.8 °F 9% 29.95 in 10.0 mi WNW 21.9 mph 29.9 mph N/A   Clear
4:35 PM 72.5 °F - 9.1 °F 9% 29.94 in 10.0 mi West 16.1 mph 25.3 mph N/A   Clear
4:55 PM 70.9 °F - 8.2 °F 9% 29.93 in 10.0 mi West 20.7 mph 29.9 mph N/A   Clear
5:15 PM 71.2 °F - 8.1 °F 9% 29.93 in 10.0 mi West 18.4 mph 24.2 mph N/A   Clear
5:35 PM 69.8 °F - 6.8 °F 9% 29.94 in 10.0 mi West 13.8 mph 23.0 mph N/A   Clear
5:55 PM 69.3 °F - 7.0 °F 9% 29.94 in 10.0 mi West 17.3 mph 27.6 mph N/A   Clear
6:15 PM 69.3 °F - 5.0 °F 8% 29.94 in 10.0 mi West 19.6 mph 28.8 mph N/A   Clear
6:35 PM 66.7 °F - 18.3 °F 16% 29.95 in 10.0 mi NNW 19.6 mph 27.6 mph N/A   Scattered Clouds
6:55 PM 65.5 °F - 19.0 °F 17% 29.95 in 10.0 mi NW 21.9 mph 27.6 mph N/A   Scattered Clouds
7:15 PM 65.3 °F - 17.8 °F 16% 29.96 in 10.0 mi WNW 19.6 mph 25.3 mph N/A   Scattered Clouds
7:35 PM 64.4 °F - 19.0 °F 18% 29.98 in 10.0 mi WNW 15.0 mph 29.9 mph N/A   Scattered Clouds
7:55 PM 62.2 °F - 23.2 °F 22% 29.98 in 10.0 mi North 15.0 mph - N/A   Mostly Cloudy
8:15 PM 61.7 °F - 23.9 °F 24% 30.00 in 10.0 mi NNW 18.4 mph 23.0 mph N/A   Overcast
8:35 PM 60.8 °F - 24.6 °F 25% 30.02 in 10.0 mi NW 21.9 mph 29.9 mph N/A   Overcast
8:55 PM 60.1 °F - 26.6 °F 28% 30.04 in 10.0 mi WNW 17.3 mph 33.4 mph N/A   Overcast
9:15 PM 58.3 °F - 28.4 °F 32% 30.06 in 10.0 mi WNW 18.4 mph 25.3 mph N/A   Overcast
9:35 PM 57.7 °F - 27.5 °F 31% 30.06 in 10.0 mi NNW 8.1 mph - N/A   Mostly Cloudy
9:55 PM 57.6 °F - 24.6 °F 28% 30.04 in 10.0 mi North 5.8 mph - N/A   Scattered Clouds
10:15 PM 54.7 °F - 25.5 °F 32% 30.05 in 10.0 mi NE 6.9 mph - N/A   Clear
10:35 PM 54.0 °F - 26.1 °F 34% 30.05 in 10.0 mi ENE 3.5 mph - N/A   Clear
10:55 PM 51.3 °F - 25.3 °F 37% 30.05 in 10.0 mi North 4.6 mph - N/A   Clear
11:15 PM 47.7 °F - 24.3 °F 40% 30.06 in 10.0 mi NNW 8.1 mph - N/A   Scattered Clouds
11:35 PM 47.8 °F - 25.5 °F 42% 30.05 in 10.0 mi NNW 5.8 mph - N/A   Scattered Clouds
11:55 PM 45.1 °F 41.4 °F 27.0 °F 49% 30.05 in 10.0 mi NW 6.9 mph - N/A   Clear